User: anonymous   Login
Location: State Camp
(41.2367°N, 77.7828°W)
Time: 20:49:02
(UTC-05:00)
Language:

Cosmos 1674 Rocket - Orbit

View from above orbital plane
View from above orbital plane
View from above satellite
View from above satellite

Ground track
Ground track

The orbit data is extracted from the following two-line orbital elements,

1 15945U 85069B   17326.54561930  .00000108  00000-0  10041-4 0  9993
2 15945  82.5267 344.7156 0021167 117.5915 242.7453 14.83950652744513
Epoch (UTC): 22 November 2017 13:05:41
Eccentricity: 0.0021167
inclination: 82.5267°
perigee height: 602 km
apogee height: 631 km
right ascension of ascending node: 344.7156°
argument of perigee: 117.5915°
revolutions per day: 14.83950652
mean anomaly at epoch: 242.7453°
orbit number at epoch: 74451

The dashed part of the orbit path shows where the satellite is in the earth's shadow,  

DLR